Location: Springfield
(37.2150°N, 93.2980°W)
Time: 08:50:42
(UTC-05:00)

Spot 2 Rocket - Pass Details

Date: 19 April 2018
Orbit: 757 x 773 km, 98.7° (Epoch: 17 September)

Event Time Altitude Azimuth Distance (km) Brightness Sun altitude
Exits shadow 21:04:01 16° 148° (SSE) 1,909 5.0 -14.2°
Maximum altitude 21:07:57 57° 73° (ENE) 901 3.6 -14.9°
Drops below altitude 10° 21:12:57 10° 356° (N) 2,315 6.4 -15.8°
Sets 21:15:17 0° 352° (N) 3,243 7.3 -16.2°
